Volver al catálogo

HULIANWANG DIGUI-125

ActivoComunicacionesLEO
NORAD 67065·PAYLOAD·🇨🇳 China

Lanzado Dec 11, 2025 desde Wenchang Space Launch Site

Loading…

Próximos Pases (próximas 24 horas)

TLE

ActualizadoSource: Space-Track

Época: Sep 14, 2026, 11:52 UTC

1 67065U 25295G   26257.49466632 -.00000117  00000-0  14399-4 0  9999
2 67065  49.9988  64.9193 0000817  60.5282 299.5671 13.29325885 37380

Sigue HULIANWANG DIGUI-125 en tiempo real con AllMySat

Download on the App Store